Regional Weather Roundup
Issued by NWS

Home | Current Version | Previous Version | Text Only | Print | Product List | Glossary Off
Versions: 1 2 3 4 5 6 7 8 9 10 11 12 13 14 15 16 17 18 19 20 21 22 23 24 25 26 27 28 29 30 31 32 33 34 35 36 37 38 39 40 41 42 43 44 45 46 47 48 49 50

000
ASUS43 KBIS 120320
RWRND

NORTH DAKOTA REGIONAL WEATHER ROUNDUP
NATIONAL WEATHER SERVICE BISMARCK ND
1000 PM CDT FRI JUL 11 2014

NOTE: "FAIR" INDICATES FEW OR NO CLOUDS BELOW 12,000 FEET WITH NO
SIGNIFICANT WEATHER AND/OR OBSTRUCTIONS TO VISIBILITY.


NDZ001>003-009>011-017-120400-
NORTHWEST NORTH DAKOTA

CITY           SKY/WX    TMP DP  RH WIND       PRES   REMARKS
WILLISTON      MOCLDY    70  52  52 N6        30.11R
MINOT          CLEAR     66  54  65 W7        30.08R
MINOT AFB      CLEAR     64  60  90 W6        30.08R
$$

NDZ018>021-031>035-040>046-120400-
SOUTHWEST NORTH DAKOTA

CITY           SKY/WX    TMP DP  RH WIND       PRES   REMARKS
BISMARCK       MOCLDY    75  58  55 N5        30.07S
DICKINSON      MOCLDY    69  57  65 NE5       30.11S
GARRISON         N/A     67  59  75 N5        30.09R
HETTINGER ARPT CLOUDY    68  59  73 NE12      30.13R
$$

NDZ004>008-012>016-024-026-027-054-120400-
NORTHEAST NORTH DAKOTA

CITY           SKY/WX    TMP DP  RH WIND       PRES   REMARKS
GRAND FORKS    CLEAR     67  57  70 NW7       29.99R
GRND FRKS AFB  CLEAR     69  57  67 N6        30.01R
DEVILS LAKE    CLEAR     66  55  68 W7        30.04R
$$

NDZ022-023-025-028>030-036>039-047>053-120400-
SOUTHEAST NORTH DAKOTA

CITY           SKY/WX    TMP DP  RH WIND       PRES   REMARKS
FARGO          CLEAR     73  59  61 NW8       29.99R
JAMESTOWN      PTCLDY    70  56  61 NW7       30.04R
$$



USA.gov is the U.S. government's official web portal to all federal, state and local government web resources and services.